Weather History for Lynchburg, VA

Change the Weather History Date:

Wednesday, August 15, 2012

  Actual Average Record
Temperature  
Mean Temperature 73 °F 74 °F  
Max Temperature 83 °F 86 °F 98 °F (1988)
Min Temperature 62 °F 63 °F 52 °F (2013)
Degree Days  
Heating Degree Days 0 0  
Month to date heating degree days 0 0  
Since 1 June heating degree days 14 15  
Since 1 July heating degree days 0 1  
Cooling Degree Days 8 9  
Month to date cooling degree days 179 149  
Year to date cooling degree days 983 763  
Since 1 June cooling degree days 826 681  
Growing Degree Days 23 (Base 50)    
Moisture  
Dew Point 63 °F    
Average Humidity 70    
Maximum Humidity 93    
Minimum Humidity 46    
Precipitation  
Precipitation T in 0.09 in 1.51 in (1940)
Month to date precipitation 0.93 1.59  
Year to date precipitation 20.78 26.26  
Snow  
Snow 0.00 in - - ()
Month to date snowfall 0.0  
Since 1 June snowfall 0.0  
Since 1 July snowfall 0.0  
Snow Depth 0.00 in    
Sea Level Pressure  
Sea Level Pressure 29.92 in    
Wind  
Wind Speed 2 mph (North)    
Max Wind Speed 14 mph    
Max Gust Speed 18 mph    
Visibility 10 miles    
Events      
T = Trace of Precipitation, MM = Missing Value Source: NWS Daily Summary

Daily Weather History Graph

Daily Weather History Graph

Search for Another Location

Airport:

Trip Planner

Search our weather history database for the weather conditions in past years. The results will help you decide how hot, cold, wet, or windy it might be!

Date:

Astronomy

Aug. 15, 2012 Rise Set
Actual Time 6:33 AM EDT 8:08 PM EDT
Civil Twilight 6:05 AM EDT 8:35 PM EDT
Nautical Twilight 5:32 AM EDT 9:09 PM EDT
Astronomical Twilight 4:57 AM EDT 9:44 PM EDT
Moon 4:29 AM EDT (8/15) 6:40 PM EDT (8/15)
Length of Visible Light 14h 30m
Length of Day
13h 34m
Waning Crescent, 4% of the Moon is Illuminated
Aug 15
Waning Crescent
Aug 17
New
Aug 24
First Quarter
Aug 31
Full
Sep 8
Last Quarter

Hourly Weather History & Observations

Time (EDT) Temp. Heat Index Dew Point Humidity Pressure Visibility Wind Dir Wind Speed Gust Speed Precip Events Conditions
12:54 AM 73.0 °F - 64.9 °F 76% 29.89 in 10.0 mi NNW 3.5 mph - N/A   Mostly Cloudy
1:54 AM 69.1 °F - 64.0 °F 84% 29.88 in 10.0 mi Calm Calm - N/A   Partly Cloudy
2:54 AM 66.9 °F - 63.0 °F 87% 29.88 in 10.0 mi Calm Calm - N/A   Clear
3:54 AM 64.9 °F - 63.0 °F 93% 29.88 in 10.0 mi Calm Calm - N/A   Clear
4:54 AM 64.0 °F - 62.1 °F 93% 29.88 in 10.0 mi Calm Calm - N/A   Clear
5:54 AM 64.0 °F - 62.1 °F 93% 29.88 in 10.0 mi Calm Calm - N/A   Clear
6:54 AM 64.9 °F - 63.0 °F 93% 29.89 in 10.0 mi Calm Calm - N/A   Clear
7:54 AM 66.9 °F - 64.9 °F 93% 29.91 in 10.0 mi SSW 3.5 mph - N/A   Clear
8:54 AM 70.0 °F - 64.9 °F 84% 29.91 in 10.0 mi Calm Calm - N/A   Clear
9:54 AM 72.0 °F - 66.0 °F 81% 29.92 in 10.0 mi Calm Calm - N/A   Clear
10:54 AM 75.0 °F - 66.0 °F 73% 29.93 in 10.0 mi Calm Calm - N/A   Clear
11:54 AM 77.0 °F - 64.9 °F 66% 29.94 in 10.0 mi Variable 3.5 mph - N/A   Clear
12:54 PM 79.0 °F - 64.0 °F 60% 29.94 in 10.0 mi Calm Calm - N/A   Clear
1:54 PM 79.0 °F - 64.0 °F 60% 29.94 in 10.0 mi North 3.5 mph - N/A   Clear
2:54 PM 79.0 °F - 63.0 °F 58% 29.94 in 10.0 mi Variable 3.5 mph - 0.00 in   Clear
3:54 PM 79.0 °F - 64.9 °F 62% 29.91 in 10.0 mi Variable 4.6 mph - 0.00 in   Scattered Clouds
4:54 PM 82.9 °F 83.2 °F 60.1 °F 46% 29.90 in 10.0 mi Variable 5.8 mph - N/A   Clear
5:54 PM 82.0 °F 82.1 °F 59.0 °F 45% 29.91 in 10.0 mi Variable 5.8 mph - N/A   Clear
6:54 PM 82.0 °F 82.7 °F 61.0 °F 49% 29.90 in 10.0 mi North 3.5 mph - N/A   Clear
7:54 PM 73.9 °F - 64.0 °F 71% 29.92 in 10.0 mi Calm Calm - N/A   Clear
8:54 PM 69.1 °F - 63.0 °F 81% 29.94 in 10.0 mi Calm Calm - N/A   Clear
9:54 PM 72.0 °F - 61.0 °F 68% 29.96 in 10.0 mi ENE 6.9 mph - N/A   Partly Cloudy
10:54 PM 70.0 °F - 62.1 °F 76% 29.97 in 10.0 mi Calm Calm - N/A   Overcast
11:54 PM 70.0 °F - 62.1 °F 76% 29.98 in 10.0 mi NNW 3.5 mph - N/A   Overcast